Moab, UT

6:03 AM MDT on April 19, 2018 (GMT -0600)
Canyonlands

Weather History for KCNY - December, 2012

Change the Weather History Date:

Thursday, December 13, 2012

  Actual Average Record
Temperature  
Mean Temperature 42 °F 27 °F  
Max Temperature 55 °F 37 °F 67 °F (1948)
Min Temperature 29 °F 16 °F -7 °F (2013)
Degree Days  
Heating Degree Days 23 38  
Month to date heating degree days 366 471  
Since 1 July heating degree days 1410 1680  
Cooling Degree Days 0 0  
Month to date cooling degree days 0 0  
Year to date cooling degree days 1513 1289  
Moisture  
Dew Point 11 °F    
Average Humidity 35    
Maximum Humidity 50    
Minimum Humidity 19    
Precipitation  
Precipitation 0.00 in 0.02 in 0.47 in (1990)
Month to date precipitation 0.06 0.21  
Year to date precipitation 2.72 8.41  
Sea Level Pressure  
Sea Level Pressure 29.89 in    
Wind  
Wind Speed 7 mph (SSW)    
Max Wind Speed 21 mph    
Max Gust Speed 25 mph    
Visibility 10 miles    
Events      
T = Trace of Precipitation, MM = Missing Value Source: NWS Daily Summary

Daily Weather History Graph

Daily Weather History Graph

Search for Another Location

Airport or City:

Astronomy

Dec. 13, 2012 Rise Set
Actual Time 7:28 AM MST 4:58 PM MST
Civil Twilight 6:59 AM MST 5:27 PM MST
Nautical Twilight 6:25 AM MST 6:01 PM MST
Astronomical Twilight 5:53 AM MST 6:33 PM MST
Moon 7:40 AM MST (12/13) 5:44 PM MST (12/13)
Length of Visible Light 10h 28m
Length of Day
9h 29m
New Moon, 0% of the Moon is Illuminated
Dec 13
New Moon
Dec 19
First Quarter
Dec 28
Full
Jan 4
Last Quarter
Jan 11
New

Hourly Weather History & Observations

Time (MST) Temp. Windchill Dew Point Humidity Pressure Visibility Wind Dir Wind Speed Gust Speed Precip Events Conditions
12:53 AM 44.1 °F - 10.9 °F 26% 29.91 in 10.0 mi Calm Calm - N/A   Clear
1:53 AM 42.1 °F 40.2 °F 10.9 °F 28% 29.92 in 10.0 mi Variable 3.5 mph - N/A   Clear
2:53 AM 33.1 °F 27.7 °F 12.9 °F 43% 29.95 in 10.0 mi NNW 5.8 mph - N/A   Clear
3:53 AM 28.9 °F 23.9 °F 12.0 °F 49% 29.96 in 10.0 mi WSW 4.6 mph - N/A   Clear
4:53 AM 39.9 °F - 12.0 °F 32% 29.94 in 10.0 mi Calm Calm - N/A   Clear
5:53 AM 41.0 °F 39.0 °F 10.9 °F 29% 29.94 in 10.0 mi Variable 3.5 mph - N/A   Clear
6:53 AM 42.1 °F 37.7 °F 10.0 °F 27% 29.95 in 10.0 mi SSE 6.9 mph - N/A   Clear
7:53 AM 44.1 °F 36.5 °F 10.0 °F 25% 29.94 in 10.0 mi SSE 17.3 mph - N/A   Clear
8:53 AM 46.0 °F 39.9 °F 10.0 °F 23% 29.94 in 10.0 mi SSE 13.8 mph - N/A   Clear
9:53 AM 48.9 °F - 10.9 °F 22% 29.92 in 10.0 mi SSE 18.4 mph 24.2 mph N/A   Clear
10:53 AM 51.1 °F - 10.9 °F 20% 29.91 in 10.0 mi SSE 16.1 mph 25.3 mph N/A   Clear
11:53 AM 52.0 °F - 12.0 °F 20% 29.89 in 10.0 mi South 16.1 mph - N/A   Clear
12:53 PM 54.0 °F - 12.0 °F 19% 29.86 in 10.0 mi South 15.0 mph - N/A   Clear
1:53 PM 54.0 °F - 14.0 °F 21% 29.84 in 10.0 mi NW 16.1 mph 19.6 mph N/A   Clear
2:53 PM 50.0 °F - 12.9 °F 23% 29.87 in 10.0 mi NW 11.5 mph - N/A   Clear
5:53 PM 39.2 °F 37.0 °F 10.4 °F 31% 29.86 in 10.0 mi NNW 3.5 mph - N/A   Clear
6:53 PM 35.1 °F - 9.0 °F 34% 29.87 in 10.0 mi Calm Calm - N/A   Clear
7:53 PM 36.0 °F - 10.9 °F 36% 29.86 in 10.0 mi Calm Calm - N/A   Clear
8:53 PM 30.0 °F - 7.0 °F 38% 29.87 in 10.0 mi Calm Calm - N/A   Mostly Cloudy
9:53 PM 30.0 °F - 10.0 °F 43% 29.85 in 10.0 mi Calm Calm - N/A   Partly Cloudy
10:53 PM 33.8 °F - 12.2 °F 41% 29.83 in 10.0 mi Calm Calm - N/A   Partly Cloudy
11:53 PM 30.9 °F - 10.0 °F 42% 29.78 in 10.0 mi Calm Calm - N/A   Clear